Starlink 33869

operational
NORAD ID: 63790 Int'l Des: 2025-091 Owner: SPXS Country: US Constellation: starlink
LEOCIRCULAR

Starlink 33869について

説明を読み込み中...

リアルタイム位置

3D地球を読み込み中...

次回通過

高度履歴

Altitude vs Time

uPlot chart will show altitude changes over time

軌道要素

1 63790U 25091R 25258.90195299 .00028197 00000-0 10289-2 0 9997
2 63790 43.0066 319.3770 0003314 277.1229 82.9246 15.27622045 22129
Epoch: Sep 15, 2025 • Age: 14 hours

現在のステータス

高度 493.9 km
速度 7.62 km/s
衛星直下点 -42.84°S, 51.68°E
打ち上げ日 May 2, 2025
運用期間 0.3 years
タイプ internet

技術仕様

分類 Payload
質量 575.00 kg
乾燥質量 530.00 kg
総質量 575.00 kg
長さ 0.30 m
直径 4.10 m
スパン 29.00 m
形状 Box + pan
製造者 SPXS
バスタイプ Starlink V2MO
フェーズステータス In Orbit
所有者/国 SPXS/US

大規模コンステレーション

Loading constellations...